CZ-6A DEB, 54280

Orbit data source: Space-Track

CZ-6A DEB, 54280 is space debris in SSO originally from a launch on Fri, 11 Nov 2022 UTC launched from the Taiyaun Space Center, China (TSC). Debris objects in space refer to the collection of defunct objects orbiting the Earth. Examples of debris include non-operational satellites, rocket bodies, and fragments generated from explosions, collisions, or faulty payload assembly.

Loading next visibility...
Identifier
54280, 2022-151X
Orbit
SSO
Country
Flag of CNCN / PRC
Related business
Manufacturer
SAST
Mission
Spacecraft
Bus & Motor
Unknown
Mass
Unknown
Launch date (UTC)
2022-11-11 (4 years ago)
Launch vehicle
Unknown
Launch site
Taiyaun Space Center, China (TSC)
Object type
Payload
Rocket body
Debris
Shape & HBR
Unknown shape, 0.1 m
Radar Cross Section
Small (<0.1 m²)

Expand to show TLE details & history
Last TLE update: 17 hours ago

TLE from 17 hours ago
0 CZ-6A DEB
1 54280U 22151X   26263.03444425  .00000954  00000-0  31151-3 0  9997
2 54280  98.6022 288.1210 0081769 107.2893 253.7262 14.38999516201309
Epoch: 2026-09-20T00:49Z
TLE epoch observation values (Epoch: 2026-09-20T00:49:35.983Z)
Latitude
0.00006°
Longitude
-83.21336°
Altitude
781.553 km
Speed
7.454 km/s
True Right ascension
19h 12m 29s
True Declination
0° 00' 00"
Sunlit
Object was in daylight at epoch
Visualization orbit readout
Latitude
Unknown
Longitude
Unknown
Altitude
Unknown
Speed
Unknown
Apparent Right ascension
Unknown
Apparent Declination
Unknown
Sunlit
N/A
Visualization observer readout
Local Sidereal Time
10:58:07
Azimuth
Unknown
Elevation
Unknown
Doppler factor
Unknown
Orbital elements
Apogee altitude
817.293 km
Perigee altitude
700.575 km
Semi-major axis
7,137.071 km
Eccentricity
0.00818
Inclination
98.6022°
RAAN
288.121°
Arg. of periapsis
107.2893°
True anomaly
252.82934°
Mean anomaly
253.7262°
Eccentric anomaly
253.27751°
Mean motion
3.59967 °/min
Orbital period
100.01 mins
BSTAR
0.00031151
Loading maneuver chart data...
Computing Atmospheric mass density...
Loading historical data...
Loading historical data...
Loading historical data...
Loading historical data...
Loading historical data...
Loading historical data...
Loading historical data...

Documentation

Showing up to 5 results
|